User: anonymous   Login
Location: Fort Wayne
(41.1310°N, 85.1290°W)
Time: 10:04:51
(UTC-05:00)
Language:

OPAL - Orbit

View from above orbital plane
View from above orbital plane
View from above satellite
View from above satellite

Ground track
Ground track

The orbit data is extracted from the following two-line orbital elements,

1 26063U 00004C   14327.74232428  .00000162  00000-0  74700-4 0  1173
2 26063 100.2262 143.2977 0037134 069.1847 291.3305 14.36444559776938
Epoch (UTC): 23 November 2014 17:48:56
Eccentricity: 0.0037134
inclination: 100.2262°
perigee height: 744 km
apogee height: 797 km
right ascension of ascending node: 143.2977°
argument of perigee: 69.1847°
revolutions per day: 14.36444559
mean anomaly at epoch: 291.3305°
orbit number at epoch: 77693

The dashed part of the orbit path shows where the satellite is in the earth's shadow,  

DLR